[[{"header":{"parameterUnit":"m.s-1","parameterCategory":1,"la1":30.2992,"la2":30.254,"lo1":-89.0895,"lo2":-89.0443,"dy":0.0025,"dx":0.0025,"nx":19,"ny":19,"refTime":"2026-04-10T03:00:00:Z","depth":0,"parameterNumber":2,"parameterNumberName":"U-component_of_WINDS"},"data":[0,0,0,-6.3099,-6.31,-6.3143,-6.3143,-6.3238,-6.3239,0,0,0,0,0,0,0,0,0,0,0,-6.311,-6.3111,-6.3098,-6.31,-6.3143,-6.3143,-6.3238,-6.3239,0,0,0,0,0,0,0,0,0,0,0,-6.3109,-6.3111,-6.3113,-6.3101,-6.3143,-6.3143,-6.3237,-6.3191,0,0,0,0,0,0,0,0,0,0,-6.3142,-6.3176,-6.311,-6.3113,-6.3101,-6.3143,-6.3143,-6.3188,-6.3194,-6.3236,0,-6.3279,0,-6.3261,-6.3248,-6.3248,0,0,0,-6.3082,-6.3171,-6.3161,-6.3113,-6.3102,-6.3143,-6.3119,-6.3191,-6.3197,-6.3244,-6.328,-6.3282,-6.3262,-6.3249,-6.3249,-6.3551,-6.3553,0,0,-6.308,-6.313,-6.3157,-6.3167,-6.3162,-6.3117,-6.312,-6.3194,-6.3237,-6.328,-6.3284,-6.3264,-6.325,-6.3251,-6.3548,-6.3551,0,0,0,-6.3085,-6.3129,-6.3117,-6.3164,-6.3169,-6.3119,-6.3122,-6.3233,-6.3225,-6.3284,-6.3265,-6.325,-6.3252,-6.3546,-6.3549,-6.3708,0,0,0,-6.3083,-6.3132,-6.3117,-6.3148,-6.3168,-6.3201,-6.3161,-6.322,-6.3227,-6.3265,-6.325,-6.3253,-6.3543,-6.3548,-6.3699,-6.3775,0,0,0,-6.3099,-6.3134,-6.3148,-6.315,-6.317,-6.3199,-6.3194,-6.322,-6.3216,-6.3249,-6.3254,-6.3542,-6.3547,-6.369,-6.376,-6.3868,0,0,0,-6.313,-6.3288,-6.3152,-6.3321,-6.3171,-6.3298,-6.3193,-6.3285,-6.3332,-6.3251,-6.3544,-6.3549,-6.3687,-6.3751,-6.3859,-6.3967,-6.4017,0,0,-6.3358,-6.3318,-6.3414,-6.3292,-6.3457,-6.3287,-6.3475,-6.347,-6.3427,-6.3512,-6.3519,-6.3702,-6.3759,-6.3866,-6.4283,-6.4323,0,0,0,-6.3503,-6.3572,-6.3605,-6.3652,-6.3654,-6.3661,-6.3622,-6.3621,-6.3691,-6.3481,-6.3769,-6.3802,-6.3863,-6.3912,-6.3946,-6.3995,-6.3574,-6.3574,-6.3573,-6.3895,-6.3833,-6.3988,-6.3932,-6.398,-6.394,-6.3973,-6.3964,-6.3887,-6.3957,-6.3981,-6.4241,-6.4301,-6.4326,-6.4378,-6.4034,-6.4035,-6.4035,-6.4036,-6.4222,-6.431,-6.4206,-6.4319,-6.4253,-6.4347,-6.4317,-6.426,-6.4338,-6.4217,-6.4268,-6.414,-6.4372,-6.4414,-6.4047,-6.4045,-6.4044,-6.4043,-6.4042,-6.447,-6.4501,-6.4498,-6.4562,-6.4619,-6.4557,-6.4638,-6.4575,-6.4517,-6.4567,-6.4586,-6.4583,-6.4571,-6.4581,-6.4582,-6.4583,-6.4584,-6.4584,-6.4585,-6.4728,-6.4719,-6.4794,-6.4812,-6.4835,-6.4858,-6.4823,-6.4844,-6.4852,-6.48,-6.4799,-6.4716,-6.4407,-6.433,-6.4599,-6.4596,-6.4594,-6.4593,-6.4592,-6.5078,-6.499,-6.5106,-6.513,-6.5146,-6.5207,-6.5128,-6.5178,-6.5186,-6.5229,-6.5136,-6.4918,-6.4872,-6.4844,-6.478,-6.5149,-6.5149,-6.5149,-6.5149,-6.5286,-6.5258,-6.5364,-6.5407,-6.5441,-6.5382,-6.5518,-6.5494,-6.5454,-6.5456,-6.5394,-6.5304,-6.5279,-6.5248,-6.5212,-6.515,-6.5605,-6.5606,-6.5606,-6.5498,-6.5471,-6.5597,-6.5558,-6.5567,-6.5576,-6.5702,-6.5756,-6.5693,-6.5623,-6.5456,-6.5437,-6.5291,-6.5247,-6.5171,-6.5116,-6.5002,0,0]},{"header":{"parameterUnit":"m.s-1","parameterCategory":1,"la1":30.2992,"la2":30.254,"lo1":-89.0895,"lo2":-89.0443,"dy":0.0025,"dx":0.0025,"nx":19,"ny":19,"refTime":"2026-04-10T03:00:00:Z","depth":0,"parameterNumber":3,"parameterNumberName":"V-component_of_WINDS"},"data":[0,0,0,1.8137,1.8136,1.8127,1.8128,1.8097,1.8097,0,0,0,0,0,0,0,0,0,0,0,1.8129,1.8128,1.8137,1.8136,1.8127,1.8128,1.8097,1.8097,0,0,0,0,0,0,0,0,0,0,0,1.8129,1.8128,1.8128,1.8136,1.8127,1.8128,1.8097,1.811,0,0,0,0,0,0,0,0,0,0,1.8122,1.8105,1.8129,1.8128,1.8136,1.8127,1.8128,1.8111,1.8109,1.8093,0,1.8077,0,1.8087,1.8093,1.8093,0,0,0,1.8143,1.8106,1.8114,1.8128,1.8136,1.8127,1.8133,1.811,1.8108,1.8091,1.8077,1.8076,1.8086,1.8093,1.8093,1.7981,1.798,0,0,1.8144,1.8121,1.8115,1.8112,1.8114,1.8134,1.8133,1.8109,1.8092,1.8077,1.8076,1.8086,1.8093,1.8092,1.7982,1.798,0,0,0,1.814,1.8121,1.8129,1.8113,1.8113,1.8133,1.8132,1.8093,1.8098,1.8076,1.8085,1.8092,1.8092,1.7982,1.7981,1.7917,0,0,0,1.8141,1.8119,1.8129,1.8115,1.8113,1.8103,1.8116,1.81,1.8098,1.8085,1.8092,1.8091,1.7983,1.7982,1.7921,1.7889,0,0,0,1.8133,1.8118,1.8114,1.8114,1.811,1.8104,1.8108,1.81,1.8103,1.8093,1.8091,1.7984,1.7982,1.7924,1.7895,1.7852,0,0,0,1.8117,1.8055,1.8112,1.8047,1.811,1.8066,1.8108,1.8076,1.806,1.8092,1.7983,1.7981,1.7925,1.7898,1.7856,1.7811,1.7791,0,0,1.8026,1.8043,1.8007,1.8058,1.7998,1.8069,1.7999,1.8005,1.8024,1.7994,1.7991,1.7919,1.7895,1.7853,1.769,1.7674,0,0,0,1.7971,1.7944,1.7933,1.7918,1.7923,1.7925,1.7944,1.7947,1.7923,1.8004,1.7895,1.7881,1.7857,1.7836,1.7823,1.7803,1.7972,1.7972,1.7972,1.7807,1.7837,1.7779,1.7809,1.7794,1.7817,1.7807,1.7814,1.7846,1.782,1.781,1.7708,1.7684,1.7674,1.7653,1.7792,1.7791,1.7791,1.7791,1.7675,1.7642,1.7691,1.7652,1.7684,1.7651,1.7671,1.7696,1.7669,1.7718,1.7698,1.7746,1.7655,1.7638,1.7786,1.7787,1.7788,1.7788,1.7788,1.7569,1.7558,1.7565,1.7548,1.7532,1.7565,1.7537,1.7568,1.7596,1.7577,1.7569,1.757,1.7574,1.7572,1.7572,1.7571,1.7571,1.7571,1.7571,1.7455,1.7465,1.7439,1.7442,1.7438,1.7435,1.746,1.7456,1.7459,1.7483,1.7483,1.7517,1.7642,1.7671,1.7565,1.7566,1.7567,1.7567,1.7568,1.7305,1.7345,1.7305,1.7301,1.7308,1.7289,1.7331,1.732,1.7321,1.7307,1.7348,1.7435,1.7454,1.7465,1.7489,1.7342,1.7342,1.7342,1.7342,1.7214,1.7229,1.7195,1.7187,1.7182,1.7216,1.7169,1.7189,1.7214,1.7216,1.7243,1.7279,1.7289,1.7302,1.7316,1.7339,1.7157,1.7157,1.7157,1.7123,1.7139,1.7093,1.7121,1.713,1.7136,1.7092,1.7079,1.7117,1.715,1.7219,1.7227,1.7285,1.7303,1.7333,1.7355,1.7398,0,0]}]]